User: anonymous   Login
Location: Bridgewater Hill Observatory
(43.5992°N, 72.6989°W)
Time: 16:23:03
(UTC-05:00)
Language:

Cosmos 1452 Rocket - Orbit

View from above orbital plane
View from above orbital plane
View from above satellite
View from above satellite

Ground track
Ground track

The orbit data is extracted from the following two-line orbital elements,

1 13992U 83031B   16044.55195807  .00000144  00000-0  58394-4 0  9996
2 13992  74.0531 185.1319 0006128 285.4476 144.2085 14.36013698718525
Epoch (UTC): 13 February 2016 13:14:49
Eccentricity: 0.0006128
inclination: 74.0531°
perigee height: 767 km
apogee height: 776 km
right ascension of ascending node: 185.1319°
argument of perigee: 285.4476°
revolutions per day: 14.36013698
mean anomaly at epoch: 144.2085°
orbit number at epoch: 71852

The dashed part of the orbit path shows where the satellite is in the earth's shadow,  

DLR